Previsão horária em Juliopol

Hoje, 24 Junho, Quinta-feira

Tempo Temperatura Precipitação Vento Pressão Humidade
00:00 +23°C° 0.1 mm 2 m/s 749 mmHg 94%
01:00 +21°C° 0.1 mm 2 m/s 749 mmHg 95%
02:00 +22°C° 0.1 mm 1 m/s 749 mmHg 95%
03:00 +22°C° 0.2 mm 1 m/s 749 mmHg 96%
04:00 +22°C° 0.2 mm 1 m/s 749 mmHg 96%
05:00 +21°C° 0.2 mm 1 m/s 749 mmHg 96%
06:00 +23°C° 0 mm 1 m/s 749 mmHg 92%
07:00 +24°C° 0 mm 1 m/s 748 mmHg 87%
08:00 +26°C° 0 mm 1 m/s 748 mmHg 83%
09:00 +27°C° 0 mm 2 m/s 748 mmHg 77%
10:00 +29°C° 0 mm 2 m/s 748 mmHg 70%
11:00 +30°C° 0 mm 3 m/s 749 mmHg 64%
12:00 +31°C° 0 mm 3 m/s 748 mmHg 60%
13:00 +33°C° 0 mm 3 m/s 748 mmHg 56%
14:00 +34°C° 0 mm 3 m/s 747 mmHg 51%
15:00 +34°C° 0 mm 4 m/s 747 mmHg 53%
16:00 +34°C° 0 mm 4 m/s 747 mmHg 54%
17:00 +34°C° 0 mm 4 m/s 746 mmHg 56%
18:00 +30°C° 0.3 mm 4 m/s 746 mmHg 63%
19:00 +28°C° 0.3 mm 5 m/s 746 mmHg 70%
20:00 +24°C° 0.3 mm 6 m/s 746 mmHg 77%
21:00 +23°C° 0.8 mm 4 m/s 746 mmHg 82%
22:00 +21°C° 0.8 mm 2 m/s 746 mmHg 86%
23:00 +21°C° 0.8 mm 1 m/s 746 mmHg 90%

Amanhã, 25 Junho, Sexta-feira

Tempo Temperatura Precipitação Vento Pressão Humidade
00:00 +20°C° 0 mm 1 m/s 746 mmHg 90%
01:00 +20°C° 0 mm 1 m/s 746 mmHg 89%
02:00 +20°C° 0 mm 1 m/s 746 mmHg 89%
03:00 +20°C° 0 mm 1 m/s 746 mmHg 89%
04:00 +19°C° 0 mm 1 m/s 746 mmHg 89%
05:00 +19°C° 0 mm 1 m/s 746 mmHg 90%
06:00 +20°C° 0.1 mm 1 m/s 746 mmHg 86%
07:00 +22°C° 0.1 mm 1 m/s 746 mmHg 83%
08:00 +23°C° 0.1 mm 1 m/s 746 mmHg 79%
09:00 +24°C° 0.2 mm 2 m/s 746 mmHg 76%
10:00 +25°C° 0.2 mm 2 m/s 746 mmHg 72%
11:00 +26°C° 0.2 mm 2 m/s 746 mmHg 69%
12:00 +26°C° 0.2 mm 3 m/s 746 mmHg 70%
13:00 +26°C° 0.2 mm 4 m/s 746 mmHg 71%
14:00 +26°C° 0.2 mm 4 m/s 747 mmHg 72%
15:00 +25°C° 0 mm 5 m/s 746 mmHg 72%
16:00 +25°C° 0 mm 5 m/s 746 mmHg 72%
17:00 +23°C° 0 mm 6 m/s 746 mmHg 72%
18:00 +22°C° 0 mm 5 m/s 747 mmHg 75%
19:00 +21°C° 0 mm 3 m/s 747 mmHg 78%
20:00 +20°C° 0 mm 2 m/s 747 mmHg 81%
21:00 +20°C° 0 mm 3 m/s 748 mmHg 81%
22:00 +19°C° 0 mm 3 m/s 748 mmHg 81%
23:00 +19°C° 0 mm 3 m/s 748 mmHg 80%

Depois de amanhã, 26 Junho, Sábado

Tempo Temperatura Precipitação Vento Pressão Humidade
00:00 +18°C° 0 mm 3 m/s 748 mmHg 85%
01:00 +17°C° 0 mm 3 m/s 748 mmHg 89%
02:00 +16°C° 0 mm 3 m/s 748 mmHg 94%
03:00 +16°C° 0 mm 3 m/s 748 mmHg 95%
04:00 +15°C° 0 mm 2 m/s 748 mmHg 95%
05:00 +15°C° 0 mm 1 m/s 749 mmHg 96%
06:00 +18°C° 0 mm 1 m/s 749 mmHg 90%
07:00 +19°C° 0 mm 1 m/s 749 mmHg 84%
08:00 +20°C° 0 mm 2 m/s 749 mmHg 78%
09:00 +21°C° 0 mm 2 m/s 749 mmHg 73%
10:00 +23°C° 0 mm 2 m/s 749 mmHg 68%
11:00 +24°C° 0 mm 3 m/s 749 mmHg 63%
12:00 +24°C° 0 mm 2 m/s 749 mmHg 62%
13:00 +24°C° 0 mm 2 m/s 749 mmHg 62%
14:00 +24°C° 0 mm 2 m/s 749 mmHg 61%
15:00 +24°C° 0 mm 2 m/s 749 mmHg 62%
16:00 +24°C° 0 mm 2 m/s 749 mmHg 62%
17:00 +24°C° 0 mm 2 m/s 749 mmHg 63%
18:00 +23°C° 0 mm 2 m/s 749 mmHg 66%
19:00 +21°C° 0 mm 2 m/s 749 mmHg 70%
20:00 +21°C° 0 mm 2 m/s 749 mmHg 74%
21:00 +20°C° 0 mm 2 m/s 749 mmHg 76%
22:00 +18°C° 0 mm 2 m/s 749 mmHg 78%
23:00 +17°C° 0 mm 2 m/s 749 mmHg 80%

27 Junho, Domingo

Tempo Temperatura Precipitação Vento Pressão Humidade
00:00 +17°C° 0 mm 2 m/s 749 mmHg 80%
01:00 +16°C° 0 mm 2 m/s 749 mmHg 81%
02:00 +16°C° 0 mm 2 m/s 749 mmHg 81%
03:00 +16°C° 0 mm 2 m/s 749 mmHg 80%
04:00 +15°C° 0 mm 2 m/s 749 mmHg 79%
05:00 +15°C° 0 mm 2 m/s 749 mmHg 78%
06:00 +17°C° 0 mm 2 m/s 749 mmHg 74%
07:00 +19°C° 0 mm 2 m/s 749 mmHg 69%
08:00 +20°C° 0 mm 2 m/s 749 mmHg 64%
09:00 +23°C° 0 mm 2 m/s 749 mmHg 61%
10:00 +24°C° 0 mm 2 m/s 750 mmHg 57%
11:00 +25°C° 0 mm 2 m/s 750 mmHg 53%
12:00 +26°C° 0 mm 2 m/s 750 mmHg 51%
13:00 +26°C° 0 mm 2 m/s 749 mmHg 49%
14:00 +27°C° 0 mm 2 m/s 749 mmHg 46%
15:00 +27°C° 0 mm 2 m/s 749 mmHg 47%
16:00 +27°C° 0 mm 2 m/s 749 mmHg 47%
17:00 +27°C° 0 mm 2 m/s 749 mmHg 47%
18:00 +26°C° 0 mm 2 m/s 749 mmHg 54%
19:00 +25°C° 0 mm 2 m/s 749 mmHg 60%
20:00 +23°C° 0 mm 2 m/s 749 mmHg 67%
21:00 +21°C° 0 mm 2 m/s 749 mmHg 68%
22:00 +21°C° 0 mm 1 m/s 749 mmHg 69%
23:00 +20°C° 0 mm 1 m/s 749 mmHg 70%

28 Junho, Segunda-feira

Tempo Temperatura Precipitação Vento Pressão Humidade
00:00 +19°C° 0 mm 1 m/s 749 mmHg 72%
01:00 +19°C° 0 mm 1 m/s 750 mmHg 74%
02:00 +18°C° 0 mm 1 m/s 750 mmHg 76%
03:00 +18°C° 0 mm 1 m/s 750 mmHg 77%
04:00 +16°C° 0 mm 0 m/s 750 mmHg 77%
05:00 +16°C° 0 mm 0 m/s 749 mmHg 78%
06:00 +18°C° 0 mm 0 m/s 750 mmHg 73%
07:00 +20°C° 0 mm 0 m/s 750 mmHg 68%
08:00 +22°C° 0 mm 0 m/s 750 mmHg 63%
09:00 +23°C° 0 mm 0 m/s 750 mmHg 59%
10:00 +24°C° 0 mm 0 m/s 750 mmHg 54%
11:00 +25°C° 0 mm 0 m/s 750 mmHg 49%
12:00 +28°C° 0 mm 1 m/s 750 mmHg 48%
13:00 +28°C° 0 mm 1 m/s 750 mmHg 46%
14:00 +29°C° 0 mm 1 m/s 750 mmHg 44%
15:00 +29°C° 0 mm 1 m/s 749 mmHg 45%
16:00 +29°C° 0 mm 1 m/s 749 mmHg 46%
17:00 +29°C° 0 mm 1 m/s 749 mmHg 47%
18:00 +27°C° 0 mm 1 m/s 749 mmHg 53%
19:00 +26°C° 0 mm 2 m/s 749 mmHg 59%
20:00 +24°C° 0 mm 2 m/s 749 mmHg 65%
21:00 +23°C° 0 mm 2 m/s 749 mmHg 66%
22:00 +21°C° 0 mm 2 m/s 749 mmHg 67%
23:00 +20°C° 0 mm 2 m/s 749 mmHg 68%

29 Junho, Terça-feira

Tempo Temperatura Precipitação Vento Pressão Humidade
00:00 +20°C° 0 mm 2 m/s 749 mmHg 71%
01:00 +19°C° 0 mm 2 m/s 749 mmHg 73%
02:00 +19°C° 0 mm 2 m/s 749 mmHg 76%
03:00 +19°C° 0 mm 2 m/s 749 mmHg 77%
04:00 +18°C° 0 mm 2 m/s 749 mmHg 79%
05:00 +18°C° 0 mm 2 m/s 749 mmHg 80%
06:00 +20°C° 0 mm 2 m/s 749 mmHg 75%
07:00 +23°C° 0 mm 2 m/s 749 mmHg 69%
08:00 +25°C° 0 mm 2 m/s 749 mmHg 64%
09:00 +26°C° 0 mm 2 m/s 749 mmHg 58%
10:00 +28°C° 0 mm 2 m/s 749 mmHg 53%
11:00 +29°C° 0 mm 3 m/s 749 mmHg 47%
12:00 +29°C° 0 mm 3 m/s 749 mmHg 46%
13:00 +30°C° 0 mm 3 m/s 749 mmHg 44%
14:00 +30°C° 0 mm 3 m/s 749 mmHg 43%
15:00 +30°C° 0 mm 2 m/s 749 mmHg 44%
16:00 +30°C° 0 mm 2 m/s 748 mmHg 45%
17:00 +30°C° 0 mm 2 m/s 748 mmHg 46%
18:00 +29°C° 0 mm 2 m/s 748 mmHg 53%
19:00 +27°C° 0 mm 2 m/s 748 mmHg 60%
20:00 +26°C° 0 mm 2 m/s 748 mmHg 68%
21:00 +24°C° 0 mm 2 m/s 748 mmHg 71%
22:00 +23°C° 0 mm 2 m/s 748 mmHg 74%
23:00 +21°C° 0 mm 3 m/s 749 mmHg 77%
Mostrar mais

Necessitamos do seu Consentimento

A Meteoprog e os seus Fornecedores de Serviços podem armazenar e aceder a dados pessoais como cookies, identificadores do dispositivo ou outras tecnologias semelhantes existentes no seu dispositivo e processar estes dados para personalizar conteúdos e anúncios, assim como funcionalidades nas redes sociais e análise de tráfego.

  • Armazenar e/ou aceder a informações no seu dispositivo

    Os cookies, identificadores do dispositivo ou outras informações podem ser armazenados ou acedidos no seu dispositivo, para os fins acima indicados.

  • Anúncios e conteúdos personalizados, medição de anúncios e conteúdos, dados sobre o público-alvo e desenvolvimento de produtos

    Os anúncios e os conteúdos podem ser personalizados com base num perfil. Podem ser adicionados dados adicionais para uma maior personalização dos anúncios e dos conteúdos. A eficácia dos anúncios e dos conteúdos pode ser medida. Podem ser obtidas informações sobre o público que visualizou os anúncios e os conteúdos. Estes dados podem ser usados para desenvolver ou melhorar sistemas, softwares ou a experiência do utilizador.

Ao clicar em "Eu concordo”, permitirá o uso de cookies, identificadores do dispositivo e web beacons mencionados ou outras tecnologias semelhantes. As configurações do navegador do seu dispositivo podem ser alteradas.

Para certos fins, podem ser invocados interesses legítimos ao invés de consentimento. Pode ler mais informação sobre este assunto na nossa Política de Privacidade e Cookies.